This demonstration page uses our WeatherBlox Daily Observations layout. Learn more.

Left ArrowRight Arrow

Hourly Observations for July 2, 2021

Temp ( °F °C ) Dew Point ( °F °C ) Humidity (%) Winds ( mph kmh ) Pressure ( in mb ) Visibility ( mi km ) Precip ( " mm )
12:53 am 00:53 Partly Cloudy 78 25.6 65 18.3 64 64 S 10 17 29.89 1012 10 16 0.00 0.00
1:53 am 01:53 Clear 75 23.9 67 19.4 76 76 SW 5 7 29.91 1013 10 16 0.00 0.00
2:53 am 02:53 Clear 74 23.3 67 19.4 79 79 Calm 29.88 1012 10 16 0.00 0.00
3:53 am 03:53 Clear 72 22.2 68 20 87 87 ENE 8 13 29.87 1011 10 16 0.00 0.00
4:53 am 04:53 Clear 71 21.7 67 19.4 87 87 NW 5 7 29.88 1012 10 16 0.00 0.00
5:53 am 05:53 Clear 71 21.7 68 20 90 90 N 3 6 29.88 1012 10 16 0.00 0.00
6:53 am 06:53 Sunny 70 21.1 67 19.4 90 90 NE 3 6 29.88 1012 10 16 0.00 0.00
7:53 am 07:53 Sunny 74 23.3 66 18.9 76 76 E 3 6 29.89 1012 10 16 0.00 0.00
8:53 am 08:53 Sunny 76 24.4 65 18.3 69 69 SSE 6 9 29.91 1013 10 16 0.00 0.00
9:53 am 09:53 Sunny 80 26.7 65 18.3 60 60 SE 7 11 29.91 1013 10 16 0.00 0.00
10:53 am 10:53 Cloudy 82 27.8 65 18.3 56 56 VRB 5 7 29.92 1013 10 16 0.00 0.00
11:53 am 11:53 Mostly Cloudy 85 29.4 65 18.3 51 51 VRB 6 9 29.92 1013 10 16 0.00 0.00
12:53 pm 12:53 Mostly Cloudy 87 30.6 65 18.3 48 48 E 7 11 29.91 1013 10 16 0.00 0.00
1:53 pm 13:53 Mostly Cloudy 89 31.7 65 18.3 45 45 E 10 17 29.88 1012 10 16 0.00 0.00
2:53 pm 14:53 Sunny 91 32.8 65 18.3 42 42 E 13 20 29.87 1011 10 16 0.00 0.00
3:53 pm 15:53 Mostly Sunny 91 32.8 63 17.2 39 39 S 3 6 29.85 1011 10 16 0.00 0.00
4:53 pm 16:53 Sunny 93 33.9 63 17.2 37 37 E 10 17 29.82 1010 10 16 0.00 0.00
5:53 pm 17:53 Mostly Sunny 93 33.9 62 16.7 36 36 S 8 13 29.81 1009 10 16 0.00 0.00
6:53 pm 18:53 Mostly Sunny 91 32.8 63 17.2 39 39 WSW 7 11 29.81 1010 10 16 0.00 0.00
7:53 pm 19:53 Mostly Sunny 86 30 67 19.4 53 53 WNW 13 20 29.80 1009 10 16 0.00 0.00
8:08 pm 20:08 Sunny with Nearby Thunderstorms 85 29.4 68 20 57 57 WNW 15 24 29.74 1007 10 16 0.00 0.00
8:53 pm 20:53 Sunny with Thunderstorms 81 27.2 66 18.9 61 61 NE 20 31 29.84 1011 10 16 0.00 0.00
9:07 pm 21:07 Mostly Clear with Nearby Thunderstorms 79 26.1 68 20 69 69 E 24 39 29.82 1010 10 16 0.00 0.00
9:16 pm 21:16 Partly Cloudy with Thunderstorms 78 25.6 67 19.4 69 69 E 15 24 29.81 1010 10 16 0.00 0.00
9:41 pm 21:41 Mostly Cloudy with Nearby Thunderstorms 77 25 69 20.6 77 77 ESE 12 19 29.85 1011 10 16 0.00 0.00
9:53 pm 21:53 Partly Cloudy with Nearby Thunderstorms 77 25 70 21.1 79 79 E 10 17 29.89 1012 10 16 0.00 0.00
10:06 pm 22:06 Partly Cloudy 77 25 70 21.1 79 79 E 12 19 29.87 1012 10 16 0.00 0.00
10:53 pm 22:53 Mostly Clear 76 24.4 68 20 77 77 ENE 10 17 29.91 1013 10 16 0.00 0.00
11:53 pm 23:53 Clear 76 24.4 68 20 77 77 NE 12 19 29.92 1013 10 16 0.00 0.00

Powered by AerisWeather